UK-DMC 2

Last updated on Fri Jul 11 2025 00:02:34 GMT+0000 (Coordinated Universal Time)

1 35683U 09041C 25191.60561462 .00000495 00000+0 80481-4 0 9999 2 35683 97.8356 331.1506 0001233 84.8428 275.2922 14.75181768856193
UTC large
Height (km)
Speed (km/s)
/
Latitude / Longitude
Inclination (degrees)
Orbital Period (minutes)
Azimuth
Elevation
Range (km)
Doppler Factor

Next 0 passes for location: London (51.5072 / 0.1276)

Sorry there are no passes over London.